Powrót do katalogu

STARLINK-11177

AktywnyŁącznośćVLEO
NORAD 60118·PAYLOAD·🇺🇸 United States

Wystrzelony Jun 24, 2024 z Vandenberg Space Force Base

Loading…

Następne Przeloty (najbliższe 24 godziny)

TLE

ŚwieżeSource: CelesTrak SupGP

Epoka: Sep 14, 2026, 21:26 UTC

1 60118C 24118F   26257.89354167  .00022965  00000+0  18912-3 0  2571
2 60118  53.1569   8.5856 0001028  82.9645 128.7148 15.69704197    15

Śledź STARLINK-11177 w czasie rzeczywistym z AllMySat

Download on the App Store